Weather in Beltsi

Moldova     47°45′38″N   27°55′38″E
temp.,
°C
wind,
m/s
gust,
m/s
humid.,
%
clouds,
%
prec.,
mm/h
press.,
hPa
HPBL,
m
22 may, sun
sun2200:00+17nnw51176100 0.0 1010535
03:00+14nnw5106245 0.0 1011440
06:00+12nw49655 0.0 1010309
09:00+16nw913565 0.0 10091336
12:00+17nw9135398 0.0 10082029
15:00+17nw8125499 0.2 10081851
18:00+17nw914505 0.0 10081882
21:00+13nnw496428 0.0 1009252
23 may, mon
mon2300:00+10nw411736 0.0 1010345
03:00+9nw31080100 0.0 1010372
06:00+8nw3118823 0.0 1010380
09:00+11nnw5872100 0.0 1011736
12:00+11nnw5774100 0.2 1011671
15:00+13nnw56705 0.4 1011704
18:00+16nnw556127 0.4 10101050
21:00+13nnw227231 0.6 101111
24 may, tue
tue2400:00+11n128385 0.5 101314
03:00+9nnw11875 0.5 101310
06:00+9n11895 0.0 101410
09:00+15ese11675 0.0 1014519
12:00+19ese114838 0.1 10141733
15:00+19sse225189 0.1 10141085
18:00+20sse2243100 0.0 10141279
21:00+15sse2265100 0.0 101517
25 may, wed
wed2500:00+12se337299 0.0 101736
03:00+10se348286 0.0 101769
06:00+10se39846 0.0 1017177
09:00+17sse710565 0.0 1018678
12:00+21s8104651 0.0 10171383
15:00+22s10114379 0.0 10161501
18:00+21sse7104983 0.0 10161339
21:00+18sse51253100 0.0 1015682
26 may, thu
thu2600:00+15sse511584 0.0 1015419
03:00+12sse497859 0.1 1015229
06:00+12wsw1188100 0.6 101538
09:00+19nw687688 0.6 1016956
12:00+20nnw685597 0.0 10181068
15:00+23nw6944100 0.0 10172040
18:00+23nw69395 0.0 10172073
21:00+17nne336487 0.0 101927